Weather History for Ponce, PR

Change the Weather History Date:

Sunday, December 9, 2012

  Actual Average Record
Temperature  
Mean Temperature 81 °F -  
Max Temperature 89 °F 86 °F 89 °F (1996)
Min Temperature 73 °F 69 °F 66 °F (1997)
Cooling Degree Days 16    
Growing Degree Days 31 (Base 50)    
Moisture  
Dew Point 70 °F    
Average Humidity 73    
Maximum Humidity 88    
Minimum Humidity 52    
Precipitation  
Precipitation 0.00 in - - ()
Sea Level Pressure  
Sea Level Pressure 30.01 in    
Wind  
Wind Speed 6 mph (ENE)    
Max Wind Speed 12 mph    
Max Gust Speed -    
Visibility 9 miles    
Events      
Averages and records for this station are not official NWS values.
T = Trace of Precipitation, MM = Missing Value Source: NWS Daily Summary

Daily Weather History Graph

Daily Weather History Graph

Search for Another Location

Airport:

Trip Planner

Search our weather history database for the weather conditions in past years. The results will help you decide how hot, cold, wet, or windy it might be!

Date:

Astronomy

Dec. 09, 2012 Rise Set
Actual Time 6:46 AM AST 5:51 PM AST
Civil Twilight 6:22 AM AST 6:14 PM AST
Nautical Twilight 5:55 AM AST 6:41 PM AST
Astronomical Twilight 5:28 AM AST 7:08 PM AST
Moon 2:40 AM AST (12/9) 2:33 PM AST (12/9)
Length of Visible Light 11h 51m
Length of Day
11h 04m
Waning Crescent, 19% of the Moon is Illuminated
Dec 9
Waning Crescent
Dec 13
New
Dec 20
First Quarter
Dec 28
Full
Jan 4
Last Quarter

Hourly Weather History & Observations

Time (AST) Temp. Heat Index Dew Point Humidity Pressure Visibility Wind Dir Wind Speed Gust Speed Precip Events Conditions
12:50 AM 73.4 °F - 69.8 °F 88% 30.02 in 8.0 mi NNE 5.8 mph - N/A   Partly Cloudy
1:50 AM 73.4 °F - 69.8 °F 88% 30.01 in 8.0 mi NNE 5.8 mph - N/A   Partly Cloudy
2:50 AM 73.4 °F - 69.8 °F 88% 30.00 in 8.0 mi NE 5.8 mph - N/A   Partly Cloudy
3:50 AM 73.4 °F - 66.2 °F 78% 30.00 in 8.0 mi East 5.8 mph - N/A   Clear
4:50 AM 73.4 °F - 66.2 °F 78% 30.00 in 8.0 mi NE 5.8 mph - N/A   Clear
5:50 AM 73.4 °F - 66.2 °F 78% 30.00 in 8.0 mi NNE 5.8 mph - N/A   Partly Cloudy
6:50 AM 73.4 °F - 66.2 °F 78% 30.01 in 10.0 mi Calm Calm - N/A   Partly Cloudy
7:50 AM 75.2 °F - 69.8 °F 83% 30.03 in 10.0 mi Calm Calm - N/A   Partly Cloudy
8:50 AM 82.4 °F 87.2 °F 71.6 °F 70% 30.04 in 10.0 mi East 6.9 mph - N/A   Partly Cloudy
9:50 AM 86.0 °F 91.8 °F 71.6 °F 62% 30.04 in 10.0 mi East 9.2 mph - N/A   Partly Cloudy
10:50 AM 86.0 °F 91.8 °F 71.6 °F 62% 30.04 in 10.0 mi East 9.2 mph - N/A   Partly Cloudy
11:50 AM 89.6 °F 94.7 °F 69.8 °F 52% 30.01 in 10.0 mi ESE 11.5 mph - N/A   Partly Cloudy
12:50 PM 89.6 °F 94.7 °F 69.8 °F 52% 30.01 in 10.0 mi East 5.8 mph - N/A   Partly Cloudy
1:50 PM 89.6 °F 96.2 °F 71.6 °F 55% 29.99 in 10.0 mi ESE 11.5 mph - N/A   Partly Cloudy
2:50 PM 87.8 °F 95.6 °F 73.4 °F 62% 29.96 in 10.0 mi NE 11.5 mph - N/A   Partly Cloudy
4:50 PM 86.0 °F 93.4 °F 73.4 °F 66% 29.97 in 10.0 mi SE 11.5 mph - N/A   Scattered Clouds
5:50 PM 82.4 °F 87.2 °F 71.6 °F 70% 29.99 in 10.0 mi ESE 5.8 mph - N/A   Scattered Clouds
6:50 PM 80.6 °F 83.9 °F 69.8 °F 70% 30.00 in 10.0 mi East 5.8 mph - N/A   Scattered Clouds
7:50 PM 78.8 °F - 69.8 °F 74% 30.01 in 10.0 mi ENE 5.8 mph - N/A   Partly Cloudy
9:50 PM 75.2 °F - 69.8 °F 83% 30.03 in 10.0 mi NE 5.8 mph - N/A   Partly Cloudy
10:50 PM 75.2 °F - 69.8 °F 83% 30.03 in 8.0 mi Calm Calm - N/A   Partly Cloudy
11:50 PM 75.2 °F - 69.8 °F 83% 30.03 in 8.0 mi Calm Calm - N/A   Partly Cloudy